Regional Weather Roundup
Issued by NWS Sterling, VA

Home | Current Version | Previous Version | Graphics & Text | Print | Product List | Glossary Off
Versions: 1 2 3 4 5 6 7 8 9 10 11 12 13 14 15 16 17 18 19 20 21 22 23 24 25 26 27 28

000
ASUS41 KLWX 210310
RWRLWX

REGIONAL WEATHER ROUNDUP
NATIONAL WEATHER SERVICE BALTIMORE MD/WASHINGTON DC
1000 PM EST MON NOV 20 2017

Note: "FAIR" indicates few or no clouds below 12,000 feet
with no significant weather and/or obstructions to visibility.
 TC=TEMPERATURE CELSIUS

 * =Non NWS site. Station does not report precipitation (e.g. rain,
    snow, etc.), thunder, or fog.

DCZ001-MDZ009-015-VAZ040>042-051-053>054-210400-
WASHINGTON METRO

CITY           SKY/WX    TMP DP  RH WIND       PRES   REMARKS
WASHINGTON NAT CLEAR     43  27  53 SW5       30.19S
DULLES         CLOUDY    37  25  61 S6        30.17S
ANDREWS AFB    CLEAR     41  25  52 S8        30.17F
FT BELVOIR     CLEAR     32  26  77 CALM      30.19S
COLLEGE PARK*  CLEAR     34  27  75 CALM      30.17F
LEESBURG*      CLOUDY    36  28  75 SW3       30.17F
MANASSAS*      CLEAR     33  25  72 S3        30.18F
GAITHERSBURG*  CLOUDY    43  22  43 S6        30.17S

$$

MDZ006>007-011-014-210400-
BALTIMORE METRO

CITY           SKY/WX    TMP DP  RH WIND       PRES   REMARKS
BWI AIRPORT    PTCLDY    39  23  52 SW3       30.17S
MARTIN STATE   CLEAR     39  28  65 CALM      30.19R
FORT MEADE*    CLEAR     30  28  93 CALM      30.20S

$$

MDZ012-015-019>023-210400-
MARYLAND EASTERN SHORE

CITY           SKY/WX    TMP DP  RH WIND       PRES   REMARKS
OCEAN CITY     CLEAR     41  32  70 SW6       30.23R
SALISBURY      CLEAR     38  31  76 SW7       30.22S
CAMBRIDGE*     CLEAR     34  28  80 CALM      30.21S
EASTON*        PTCLDY    40  31  68 S6        30.23S

$$

MDZ017>025-210400-
SOUTHERN MARYLAND

CITY           SKY/WX    TMP DP  RH WIND       PRES   REMARKS
PATUXENT RIVER NOT AVBL
ST INIGOES     NOT AVBL
LEONARDTOWN*   CLEAR     41  30  65 S3        30.22S

$$

MDZ003>005-210400-
NORTH CENTRAL MARYLAND

CITY           SKY/WX    TMP DP  RH WIND       PRES   REMARKS
FREDERICK*     CLOUDY    36  23  60 S3        30.18S
HAGERSTOWN APT CLEAR     40  23  50 S6        30.13R
WESTMINSTER*   CLEAR     39  25  56 S5        30.14S

$$

MDZ501>502-210400-
WESTERN MARYLAND

CITY           SKY/WX    TMP DP  RH WIND       PRES   REMARKS
OAKLAND*       CLOUDY    32  19  59 S13       30.03S WCI  22
CUMBERLAND*    CLOUDY    32  27  80 CALM      30.16S

$$

VAZ025>031-210400-
SHENANDOAH VALLEY

CITY           SKY/WX    TMP DP  RH WIND       PRES   REMARKS
WINCHESTER*    CLOUDY    37  23  56 SW5       30.13S
FRONT ROYAL*   CLOUDY    37  23  56 SE5       30.13F
LURAY*         PTCLDY    39  25  56 SW3       30.15F
NEW MARKET*    CLOUDY    32  24  71 CALM      30.15S
STAUNTON*      CLOUDY    31  22  67 SW5       30.18S
WAYNESBORO*    CLOUDY    34  21  60 SW3       30.17R

$$

WVZ021-048>050-054>055-210400-
EASTERN WEST VIRGINIA PANHANDLE

CITY           SKY/WX    TMP DP  RH WIND       PRES   REMARKS
MARTINSBURG    CLOUDY    37  22  54 S7        30.13S
PETERSBURG*    CLOUDY    30  24  80 NW6       30.13F

$$

VAZ036>039-050-210400-
CENTRAL FOOTHILLS

CITY           SKY/WX    TMP DP  RH WIND       PRES   REMARKS
CHARLOTTESVILL CLOUDY    41  22  46 SW3       30.18S
CULPEPER*      CLOUDY    33  24  70 CALM      30.19S
ORANGE*        CLOUDY    32  27  80 CALM      30.19R
GORDONSVILLE*  CLOUDY    32  28  84 CALM      30.18S
WARRENTON*     NOT AVBL

$$

VAZ055>057-210400-
NORTH AND CENTRAL PIEDMONT

CITY           SKY/WX    TMP DP  RH WIND       PRES   REMARKS
FREDERICKSBRG* CLOUDY    35  29  80 CALM      30.19S
STAFFORD*      CLOUDY    31  26  81 CALM      30.24S

$$

NCZ024-NYZ072-PAZ021-071-VAZ022-071-210400-
OTHER REGIONAL OBSERVATIONS

CITY           SKY/WX    TMP DP  RH WIND       PRES   REMARKS
NEW YORK CITY  CLEAR     43  24  47 CALM      30.13S
PHILADELPHIA   CLEAR     41  27  57 S8        30.17R
PITTSBURGH     CLOUDY    37  21  52 S6        30.03F
ROANOKE        CLOUDY    37  25  61 CALM      30.20S
RICHMOND       PTCLDY    36  29  75 S5        30.22S
RALEIGH        CLOUDY    39  29  67 CALM      30.25R

$$

ANZ530>537-210400-
MARINE OBSERVATIONS

STATION/POSITION TIME  TEMP    WIND        PRES
                       AIR SEA DIR/SP/G
                 (UTC) (F)     (DEG/KT/KT) (MB)
THOMAS PT LIGHT  0300   49 52  200/ 14/ 15   N/A
BALT KEY BRIDGE  0248   45     220/  7/  9 1021.7R
COVE POINT       0248   47     220/ 12/ 14 1023.4S
LEWISETTA        0248          230/  8/  9   N/A
SOLOMONS ISLAND  0248   46 54  200/  8/ 10 1022.6R
PINEY POINT      0248          230/ 12/ 14   N/A

$$





USA.gov is the U.S. government's official web portal to all federal, state and local government web resources and services.